| time (UTC) | temp F | wind direction | speed knots | gust knots | rain 1hr in | rain 24hr in | rain mn in | humidity % | barometer mb |
| 20260504050519 | 46 | 189 | 1.7 | 4.3 | 0.00 | 0.00 | 0.00 | 81 | 1016.5 |
| 20260504045543 | 45 | 212 | 2.6 | 6.1 | 0.00 | 0.00 | 0.00 | 82 | 1016.4 |
| 20260504044519 | 44 | 165 | 3.5 | 6.1 | 0.00 | 0.00 | 0.00 | 84 | 1016.4 |
| 20260504043603 | 43 | 183 | 4.3 | 7.0 | 0.00 | 0.00 | 0.00 | 86 | 1016.4 |
| 20260504042519 | 42 | 135 | 2.6 | 5.2 | 0.00 | 0.00 | 0.00 | 88 | 1016.4 |
| 20260504041544 | 42 | 115 | 1.7 | 4.3 | 0.00 | 0.00 | 0.00 | 91 | 1016.3 |
| 20260504040612 | 41 | 162 | 3.5 | 5.2 | 0.00 | 0.00 | 0.00 | 91 | 1016.3 |
| 20260504035532 | 41 | 163 | 3.5 | 6.1 | 0.00 | 0.00 | 0.00 | 89 | 1016.2 |
| 20260504034519 | 41 | 42 | 0.9 | 2.6 | 0.00 | 0.00 | 0.00 | 87 | 1016.1 |
| 20260504033603 | 40 | 91 | 0.9 | 2.6 | 0.00 | 0.00 | 0.00 | 89 | 1016.1 |
| 20260504032535 | 40 | 116 | 0.9 | 2.6 | 0.00 | 0.00 | 0.00 | 91 | 1016.0 |
| 20260504031527 | 40 | 118 | 0.9 | 2.6 | 0.00 | 0.00 | 0.00 | 92 | 1016.0 |
| 20260504030520 | 40 | 150 | 1.7 | 2.6 | 0.00 | 0.00 | 0.00 | 92 | 1016.0 |
| 20260504025544 | 40 | 150 | 2.6 | 5.2 | 0.00 | 0.00 | 0.00 | 91 | 1015.9 |
| 20260504024536 | 39 | 162 | 2.6 | 5.2 | 0.00 | 0.00 | 0.00 | 92 | 1015.9 |
| 20260504023527 | 39 | 163 | 2.6 | 4.3 | 0.00 | 0.00 | 0.00 | 91 | 1015.8 |
| 20260504022519 | 40 | 109 | 1.7 | 2.6 | 0.00 | 0.00 | 0.00 | 86 | 1015.9 |
| 20260504021543 | 41 | 351 | 1.7 | 4.3 | 0.00 | 0.00 | 0.00 | 83 | 1015.9 |
| 20260504020536 | 41 | 1 | 0.9 | 5.2 | 0.00 | 0.00 | 0.00 | 83 | 1015.9 |
| 20260504015528 | 41 | 359 | 1.7 | 2.6 | 0.00 | 0.00 | 0.00 | 85 | 1015.9 |
| 20260504014540 | 40 | 1 | 1.7 | 4.3 | 0.00 | 0.00 | 0.00 | 90 | 1016.0 |
| 20260504013545 | 39 | 91 | 1.7 | 1.7 | 0.00 | 0.00 | 0.00 | 91 | 1016.2 |
| 20260504012556 | 39 | 64 | 0.9 | 1.7 | 0.00 | 0.00 | 0.00 | 90 | 1016.2 |
| 20260504011548 | 39 | 175 | 0.9 | 4.3 | 0.00 | 0.00 | 0.00 | 89 | 1016.3 |
| 20260504010535 | 39 | 167 | 0.9 | 1.7 | 0.00 | 0.00 | 0.00 | 89 | 1016.4 |
| 20260504005544 | 39 | 245 | 1.7 | 2.6 | 0.00 | 0.00 | 0.00 | 90 | 1016.4 |
| 20260504004535 | 39 | 244 | 2.6 | 5.2 | 0.00 | 0.00 | 0.00 | 90 | 1016.6 |
| 20260504003527 | 40 | 238 | 2.6 | 5.2 | 0.00 | 0.00 | 0.00 | 89 | 1016.6 |
| 20260504002540 | 40 | 250 | 2.6 | 4.3 | 0.00 | 0.00 | 0.00 | 88 | 1016.8 |
| 20260504001545 | 40 | 287 | 1.7 | 2.6 | 0.00 | 0.00 | 0.00 | 87 | 1016.8 |
| 20260504000537 | 40 | 238 | 2.6 | 6.1 | 0.00 | 0.00 | 0.00 | 86 | 1016.8 |
| 20260503235529 | 40 | 253 | 2.6 | 4.3 | 0.00 | 0.00 | 0.00 | 86 | 1016.9 |
| 20260503234520 | 40 | 47 | 0.9 | 2.6 | 0.00 | 0.00 | 0.00 | 85 | 1017.0 |
| 20260503233528 | 42 | 295 | 1.7 | 2.6 | 0.00 | 0.00 | 0.00 | 84 | 1017.0 |
| 20260503232556 | 43 | 350 | 0.9 | 1.7 | 0.00 | 0.00 | 0.00 | 80 | 1017.1 |
| 20260503231527 | 44 | 343 | 2.6 | 5.2 | 0.00 | 0.00 | 0.00 | 77 | 1017.1 |
| 20260503230520 | 45 | 4 | 1.7 | 1.7 | 0.00 | 0.00 | 0.00 | 75 | 1017.2 |
| 20260503225544 | 45 | 359 | 0.9 | 2.6 | 0.00 | 0.00 | 0.00 | 74 | 1017.2 |
| 20260503224616 | 45 | 5 | 1.7 | 4.3 | 0.00 | 0.00 | 0.00 | 74 | 1017.2 |
| 20260503223528 | 45 | 358 | 2.6 | 5.2 | 0.00 | 0.00 | 0.00 | 74 | 1017.2 |
| 20260503222536 | 46 | 359 | 1.7 | 2.6 | 0.00 | 0.00 | 0.00 | 72 | 1017.1 |
| 20260503221528 | 47 | 352 | 4.3 | 7.0 | 0.00 | 0.00 | 0.00 | 70 | 1017.1 |
| 20260503220519 | 47 | 357 | 5.2 | 7.0 | 0.00 | 0.00 | 0.00 | 71 | 1017.2 |
| 20260503215551 | 46 | 18 | 2.6 | 5.2 | 0.00 | 0.00 | 0.00 | 72 | 1017.4 |
| 20260503214541 | 46 | 352 | 3.5 | 6.1 | 0.00 | 0.00 | 0.00 | 73 | 1017.4 |
| 20260503213544 | 46 | 356 | 4.3 | 6.1 | 0.00 | 0.00 | 0.00 | 74 | 1017.4 |
| 20260503212536 | 46 | 5 | 2.6 | 5.2 | 0.00 | 0.00 | 0.00 | 75 | 1017.5 |
| 20260503211600 | 45 | 357 | 2.6 | 4.3 | 0.00 | 0.00 | 0.00 | 77 | 1017.3 |
| 20260503210536 | 45 | 355 | 5.2 | 7.0 | 0.00 | 0.00 | 0.00 | 78 | 1017.4 |
| 20260503205529 | 44 | 351 | 5.2 | 7.0 | 0.00 | 0.00 | 0.00 | 78 | 1017.2 |
| 20260503204536 | 45 | 349 | 4.3 | 7.0 | 0.00 | 0.00 | 0.00 | 78 | 1017.3 |
| 20260503203604 | 46 | 358 | 3.5 | 5.2 | 0.00 | 0.00 | 0.00 | 74 | 1017.3 |
| 20260503202521 | 47 | 1 | 3.5 | 7.0 | 0.00 | 0.00 | 0.00 | 73 | 1017.4 |
| 20260503201528 | 47 | 358 | 2.6 | 4.3 | 0.00 | 0.00 | 0.00 | 73 | 1017.5 |
| 20260503200519 | 47 | 0 | 3.5 | 5.2 | 0.00 | 0.00 | 0.00 | 73 | 1017.6 |
| 20260503195528 | 47 | 353 | 1.7 | 6.1 | 0.00 | 0.00 | 0.00 | 75 | 1017.6 |
| 20260503194540 | 47 | 3 | 3.5 | 6.1 | 0.00 | 0.00 | 0.00 | 74 | 1017.6 |
| 20260503193534 | 48 | 358 | 3.5 | 7.8 | 0.00 | 0.00 | 0.00 | 69 | 1017.6 |
| 20260503192520 | 48 | 2 | 2.6 | 6.1 | 0.00 | 0.00 | 0.00 | 69 | 1017.8 |
| 20260503191600 | 49 | 348 | 2.6 | 5.2 | 0.00 | 0.00 | 0.00 | 69 | 1017.7 |
| 20260503190541 | 49 | 10 | 2.6 | 5.2 | 0.00 | 0.00 | 0.00 | 69 | 1017.9 |
| 20260503185544 | 50 | 7 | 3.5 | 6.1 | 0.00 | 0.00 | 0.00 | 68 | 1018.0 |
| 20260503184539 | 50 | 357 | 3.5 | 7.0 | 0.00 | 0.00 | 0.00 | 66 | 1018.1 |
| 20260503183544 | 50 | 20 | 2.6 | 5.2 | 0.00 | 0.00 | 0.00 | 63 | 1018.2 |
| 20260503182536 | 50 | 4 | 2.6 | 6.1 | 0.00 | 0.00 | 0.00 | 62 | 1018.3 |
| 20260503181529 | 51 | 13 | 0.9 | 4.3 | 0.00 | 0.00 | 0.00 | 62 | 1018.4 |
| 20260503180552 | 51 | 48 | 0.9 | 1.7 | 0.00 | 0.00 | 0.00 | 61 | 1018.5 |
| 20260503175547 | 51 | 14 | 0.9 | 2.6 | 0.00 | 0.00 | 0.00 | 60 | 1018.4 |
| 20260503174528 | 51 | 353 | 1.7 | 2.6 | 0.00 | 0.00 | 0.00 | 60 | 1018.4 |
| 20260503173544 | 51 | 62 | 0.9 | 1.7 | 0.00 | 0.00 | 0.00 | 61 | 1018.3 |
| 20260503173355 | 52 | 53 | 2.6 | 5.2 | 0.00 | 0.00 | 0.00 | 60 | 1018.3 |
| 20260503171545 | 52 | 52 | 2.6 | 5.2 | 0.00 | 0.00 | 0.00 | 61 | 1018.3 |
| 20260503170520 | 52 | 48 | 2.6 | 7.0 | 0.00 | 0.00 | 0.00 | 63 | 1018.3 |
| 20260503131026 | 54 | 60 | 4.3 | 12.2 | 0.00 | 0.00 | 0.00 | 69 | 1018.6 |
| 20260503081045 | 48 | 5 | 5.2 | 11.3 | 0.00 | 0.00 | 0.00 | 81 | 1019.9 |
| 20260503072033 | 49 | 353 | 6.1 | 15.6 | 0.00 | 0.00 | 0.00 | 78 | 1019.7 |
| 20260503071036 | 50 | 35 | 7.0 | 13.0 | 0.00 | 0.00 | 0.00 | 77 | 1019.7 |
| 20260503070556 | 49 | 332 | 6.1 | 11.3 | 0.00 | 0.00 | 0.00 | 77 | 1019.7 |
| 20260503055025 | 49 | 29 | 4.3 | 13.9 | 0.00 | 0.00 | 0.00 | 75 | 1019.6 |
| 20260503054033 | 47 | 339 | 7.0 | 12.2 | 0.00 | 0.00 | 0.00 | 79 | 1019.4 |
| 20260503053041 | 47 | 33 | 5.2 | 12.2 | 0.00 | 0.00 | 0.00 | 79 | 1019.2 |